Home   Weather   Gorgan   Past weeks

Flag for Iran Past Weather in Gorgan, Iran — Yesterday and Last 2 Weeks

Now
68 °F

Sunny.


Feels Like: 68 °F
Forecast: 56 / 72 °F
Wind: 7 mph from East

Location: Gorgan Airport

Current Time: Sep 30, 2016 at 10:19:54 AM

Latest Report: Sep 30, 2016 at 9:30 AM


Visibility: 10 mi

Pressure: 30.01 "Hg

Humidity: 69%

Dew Point: 57 °F

Location of GorganLocation

Past Weather in Gorgan — Graph

°F

Gorgan Temperature Yesterday

Maximum temperature yesterday: 72 °F (at 12:30 PM)
Minimum temperature yesterday: 61 °F (at 6:30 AM)
Average temperature yesterday: 66 °F

High & Low Weather Summary for the Past Weeks

 TemperatureHumidityPressure
High99 °F (Sep 21, 2:30 PM)100% (Sep 19, 2:30 AM)30.15 "Hg (Sep 19, 2:30 AM)
Low57 °F (Sep 30, 5:30 AM)21% (Sep 21, 3:30 PM)29.62 "Hg (Sep 21, 3:30 PM)
Average75 °F73%29.91 "Hg
* Reported Sep 15 9:30 AM — Sep 30 8:30 AM, Gorgan, Weather by CustomWeather, © 2016

Note: Actual official high and low records may vary slightly from our data, if they occured in-between our weather recording intervals... More about our weather records

Advertising

Gorgan Weather History for the Previous 24 Hours

Scroll right to see more
 ConditionsComfort  
Time TempWeatherWind HumidityBarometerVisibility
8:30 AM
Fri, Sep 30
64 °FSunny.5 mph88%30.04 "Hg10 mi
7:30 AM61 °FPassing clouds.5 mph94%30.04 "HgN/A
6:30 AM57 °FPassing clouds.5 mph94%30.04 "HgN/A
5:30 AM57 °FPassing clouds.7 mph94%30.07 "HgN/A
4:30 AM59 °FClear.5 mph94%30.09 "Hg10 mi
3:30 AM61 °FPassing clouds.No wind94%30.09 "HgN/A
2:30 AM61 °FPassing clouds.5 mph94%30.09 "HgN/A
1:30 AM63 °FPassing clouds.5 mph94%30.09 "HgN/A
12:30 AM63 °FPassing clouds.No wind94%30.12 "HgN/A
11:30 PM
Thu, Sep 29
63 °FPassing clouds.No wind88%30.12 "HgN/A
10:30 PM63 °FPassing clouds.No wind94%30.12 "HgN/A
10:00 PM63 °FPassing clouds.5 mph94%30.12 "HgN/A
9:30 PM64 °FPassing clouds.7 mph88%30.15 "HgN/A
8:30 PM64 °FPartly cloudy.9 mph88%30.12 "HgN/A
8:00 PM64 °FPartly cloudy.7 mph83%30.15 "HgN/A
7:30 PM64 °FPartly cloudy.12 mph83%30.12 "HgN/A
6:30 PM64 °FPartly cloudy.14 mph88%30.09 "HgN/A
5:30 PM63 °FBroken clouds.14 mph88%30.12 "HgN/A
4:30 PM66 °FBroken clouds.21 mph83%30.09 "HgN/A
4:00 PM68 °FMore clouds than sun.23 mph78%30.09 "HgN/A
3:30 PM68 °FMore clouds than sun.14 mph83%30.07 "HgN/A
2:30 PM72 °FMore clouds than sun.23 mph73%30.07 "HgN/A
1:30 PM72 °FBroken clouds.35 mph73%30.07 "HgN/A
12:30 PM72 °FMore clouds than sun.16 mph65%30.07 "HgN/A
11:30 AM70 °FBroken clouds.16 mph69%30.07 "HgN/A
10:30 AM70 °FBroken clouds.18 mph69%30.07 "HgN/A
10:00 AM68 °FBroken clouds.21 mph73%30.09 "HgN/A
Weather by CustomWeather, © 2016

See weather overviewHow to use our weather pages